Location: Acheville
(50.3840°N, 2.8827°E)
Time: 10:50:50
(UTC+00:00)

Okean 1-7 Rocket - Pass Details

Date: 24 October 2021
Orbit: 617 x 648 km, 82.5° (Epoch: 30 November)

Event Time Altitude Azimuth Distance (km) Brightness Sun altitude
Rises 17:50:35 0° 349° (NNW) 2,910 7.1 -12.1°
Reaches altitude 10° 17:52:49 10° 348° (NNW) 2,002 6.3 -12.4°
Maximum altitude 17:57:15 82° 261° (W) 638 3.7 -13.1°
Drops below altitude 10° 18:01:42 10° 175° (S) 2,002 6.1 -13.8°
Sets 18:03:55 0° 174° (S) 2,910 7.0 -14.2°
